Showing default

GLOBAL-9, 47971

Orbit data source: Space-Track

GLOBAL-9, 47971 is a payload satellite owned by BlackSky Global (US) in LEO that was launched on Mon, 22 Mar 2021 UTC via an ELECTRON launch vehicle from the Rocket Lab Launch Complex (RLLC). Payload-class satellites include a variety of spacecraft equipped with specific instruments for various scientific and technological missions. These include communications satellites like Starlink; space stations such as the ISS; scientific satellites like the Hubble; Earth observation satellites from companies like Planet Labs, Umbra, and HawkEye 360; GPS; miniature CubeSats for education and research; and military/defense satellites.

Loading next visibility...
Identifier
47971, 2021-023G
Orbit
LEO
Country
Flag of USUS
Related business
Manufacturer
LeoStella
Mission
Operational Commercial Imaging
Bus & Motor
BSKY, Unknown motor
Mass
55 kg wet, ~50 kg dry
Launch date (UTC)
2021-03-22 (5 years ago)
Launch vehicle
ELECTRON
Launch site
Rocket Lab Launch Complex (RLLC)
Object type
Payload
Rocket body
Debris
Shape & HBR
Box, 1.0 m
Radar Cross Section
0.625 m², Medium (>0.1 m² and < 1m²)

Expand to show TLE details & history
Last TLE update: 2 days ago

TLE from 2 days ago
0 GLOBAL-9
1 47971U 21023G   26171.22438225  .00016984  00000-0  33857-3 0  9998
2 47971  44.9798 233.4544 0004424 333.6360  26.4304 15.46709788295419
Epoch: 2026-06-20T05:23Z
TLE epoch observation values (Epoch: 2026-06-20T05:23:06.626Z)
Latitude
-0.00004°
Longitude
-115.76533°
Altitude
423.66 km
Speed
7.66 km/s
True Right ascension
15h 33m 49s
True Declination
0° 00' 00"
Sunlit
Object was in full shadow at epoch
Visualization orbit readout
Latitude
Unknown
Longitude
Unknown
Altitude
Unknown
Speed
Unknown
Apparent Right ascension
Unknown
Apparent Declination
Unknown
Sunlit
N/A
Visualization observer readout
Local Sidereal Time
21:27:53
Azimuth
Unknown
Elevation
Unknown
Doppler factor
Unknown
Orbital elements
Apogee altitude
430.996 km
Perigee altitude
424.974 km
Semi-major axis
6,806.122 km
Eccentricity
0.00044
Inclination
44.9798°
RAAN
233.4544°
Arg. of periapsis
333.636°
True anomaly
26.45298°
Mean anomaly
26.4304°
Eccentric anomaly
26.44169°
Mean motion
3.86539 °/min
Orbital period
93.13 mins
BSTAR
0.00033857
Loading maneuver chart data...
Computing Atmospheric mass density...
Loading historical data...
Loading historical data...
Loading historical data...
Loading historical data...
Loading historical data...
Loading historical data...
Loading historical data...

Documentation

Showing up to 5 results
|